Regional Weather Roundup
Issued by NWS Northern Indiana

Home | Current Version | Previous Version | Text Only | Print | Product List | Glossary Off
Versions: 1 2 3 4 5 6 7 8 9 10 11 12 13 14 15 16 17 18 19 20 21 22 23 24 25 26 27 28 29 30 31 32 33 34 35 36 37 38 39 40 41 42 43 44 45 46 47 48 49 50

000
ASUS43 KIWX 301300
RWRIWX

KIWX WEATHER ROUNDUP
NATIONAL WEATHER SERVICE NORTHERN INDIANA
800 AM EST FRI JAN 30 2015

NOTE: "FAIR" INDICATES FEW OR NO CLOUDS BELOW 12,000 FEET WITH NO
SIGNIFICANT WEATHER AND/OR OBSTRUCTIONS TO VISIBILITY.

* THESE STATIONS ARE NOT UNDER NWS QUALITY CONTROL. THEY ALSO MAY NOT
  REPORT WEATHER SUCH AS PRECIPITATION OR FOG.

INZ001>027-301400-
NORTHERN INDIANA

CITY           SKY/WX    TMP DP  RH WIND       PRES   REMARKS
GARY*          MOCLDY    27   7  43 NW14G25   30.48R WCI  15
VALPARAISO     FLURRIES  24  19  81 N7        30.45R WCI  16
SOUTH BEND     CLOUDY    25  13  60 N17       30.42R WCI  12
ELKHART*       CLOUDY    23  10  58 N6        30.42R WCI  16
GOSHEN         CLOUDY    22  13  68 N15       30.40R WCI   9
ANGOLA*        CLOUDY    19  10  68 N9        30.36R WCI   9
FORT WAYNE     MOCLDY    21  11  65 N15       30.41R WCI   8
PERU/GRISSOM   CLOUDY    25  16  69 N9        30.41R WCI  15

$$
INZ028>050-301400-
CENTRAL INDIANA

CITY           SKY/WX    TMP DP  RH WIND       PRES   REMARKS
LAFAYETTE      CLEAR     24  12  60 N12       30.46R WCI  13
KOKOMO*        CLOUDY    25  16  68 N12       30.41R WCI  14
MUNCIE*        CLOUDY    24  16  71 N20       30.39R WCI  10
INDIANAPOLIS   CLOUDY    24  17  74 N10       30.42R WCI  14

$$
MIZ043>046-050>051-056>058-064>065-071>073-077>080-301400-
SOUTHWEST LOWER MICHIGAN

CITY           SKY/WX    TMP DP  RH WIND       PRES   REMARKS
BATTLE CREEK   CLOUDY    20   6  55 N17G28    30.39R WCI   5
BENTON HARBOR  FLURRIES  23  15  71 N8G21     30.43R WCI  14
COLDWATER*     FLURRIES  19  11  70 N9        30.37R WCI   9
HILLSDALE*     CLOUDY    19  11  70 N9G17     30.33R WCI   8
HOLLAND        FLURRIES  21  12  68 N7        30.44R WCI  12
GRAND RAPIDS   CLOUDY    20   7  57 N13       30.41R WCI   7
KALAMAZOO      CLOUDY    20   9  62 N18       30.40R WCI   5
STURGIS*       CLOUDY    19   9  63 NW8G22    30.39R WCI   9
THREE RIVERS*  CLOUDY    20  10  65 N10       30.42R WCI   9

$$
OHZ001>008-015>018-024>025-301400-
NORTHWEST OHIO

CITY           SKY/WX    TMP DP  RH WIND       PRES   REMARKS
DEFIANCE       CLOUDY    22  10  60 N9        30.38R WCI  12
FINDLAY        CLOUDY    22  10  60 N16       30.33R WCI   8
TOLEDO EXPRESS PTCLDY    18   9  68 N13G21    30.36R WCI   5
TOLEDO METCALF MOCLDY    20  10  65 NW15      30.36R WCI   6
LIMA           CLOUDY    22  11  62 N14G25    30.33R WCI   9

$$
AND FOR LAKE MICHIGAN COASTAL AND OPEN LAKE BUOY OBSERVATIONS

STATION/POSITION TEMP    WIND        PRES    VSBY  WAVE
                 AIR SEA DIR/SP/G                  HT/PER
                 (F)     (DEG/KT/KT) (MB)    (MI)  (FT/S)
CALUMET HARBOR    24     300/  9/ 15   N/A
MICHIGAN CITY     26     350/ 23/ 27   N/A
SAINT JOSEPH      26     320/ 18/ 27 1030.5R

$$
&&


USA.gov is the U.S. government's official web portal to all federal, state and local government web resources and services.